TimeAKDT,TemperatureF,Dew PointF,Humidity,Sea Level PressureIn,VisibilityMPH,Wind Direction,Wind SpeedMPH,Gust SpeedMPH,PrecipitationIn,Events,Conditions,WindDirDegrees,DateUTC
12:31 AM,53.6,51.8,94,30.00,1.8,ENE,5.8,-,N/A,,Overcast,60,2013-08-13 08:31:00
12:47 AM,53.6,51.8,94,30.00,1.0,NE,5.8,-,N/A,,Mist,50,2013-08-13 08:47:00
12:53 AM,53.1,51.1,93,30.01,0.8,NE,4.6,-,N/A,,Mist,40,2013-08-13 08:53:00
12:59 AM,53.6,51.8,94,30.00,1.2,NE,4.6,-,N/A,,Overcast,50,2013-08-13 08:59:00
1:03 AM,53.6,51.8,94,30.00,4.0,NE,4.6,-,N/A,,Overcast,40,2013-08-13 09:03:00
1:53 AM,53.1,51.1,93,30.00,10.0,NNE,5.8,-,N/A,,Overcast,30,2013-08-13 09:53:00
2:53 AM,53.1,51.1,93,29.99,10.0,NNE,6.9,-,N/A,,Overcast,30,2013-08-13 10:53:00
3:06 AM,53.6,51.8,94,29.99,10.0,NE,4.6,-,N/A,,Overcast,50,2013-08-13 11:06:00
3:53 AM,54.0,50.0,86,29.99,10.0,NNE,5.8,-,N/A,,Overcast,30,2013-08-13 11:53:00
4:53 AM,54.0,51.1,90,29.99,10.0,ENE,4.6,-,N/A,,Overcast,60,2013-08-13 12:53:00
5:53 AM,54.0,50.0,86,29.98,10.0,SE,4.6,-,N/A,,Mostly Cloudy,140,2013-08-13 13:53:00
6:53 AM,54.0,50.0,86,29.98,10.0,ESE,8.1,-,N/A,,Mostly Cloudy,120,2013-08-13 14:53:00
7:53 AM,54.0,50.0,86,29.98,10.0,Calm,Calm,-,N/A,,Mostly Cloudy,0,2013-08-13 15:53:00
8:53 AM,54.0,50.0,86,29.98,10.0,ESE,3.5,-,N/A,,Overcast,120,2013-08-13 16:53:00
9:53 AM,55.0,51.1,86,29.99,10.0,ESE,9.2,-,N/A,,Overcast,110,2013-08-13 17:53:00
10:53 AM,55.9,51.1,84,29.99,10.0,East,9.2,-,N/A,,Mostly Cloudy,100,2013-08-13 18:53:00
11:53 AM,57.0,51.1,81,29.99,10.0,East,11.5,-,N/A,,Mostly Cloudy,100,2013-08-13 19:53:00
12:53 PM,57.9,52.0,81,30.00,10.0,ESE,10.4,-,N/A,,Mostly Cloudy,110,2013-08-13 20:53:00
1:53 PM,57.0,52.0,83,30.00,10.0,NE,6.9,-,N/A,,Mostly Cloudy,40,2013-08-13 21:53:00
2:53 PM,57.9,52.0,81,30.00,10.0,Variable,6.9,-,N/A,,Mostly Cloudy,0,2013-08-13 22:53:00
3:53 PM,61.0,50.0,67,29.99,10.0,SE,8.1,-,N/A,,Mostly Cloudy,140,2013-08-13 23:53:00
4:53 PM,57.9,51.1,78,29.99,10.0,ENE,10.4,-,N/A,,Mostly Cloudy,60,2013-08-14 00:53:00
5:53 PM,57.0,51.1,81,29.99,10.0,East,11.5,-,N/A,,Mostly Cloudy,100,2013-08-14 01:53:00
6:53 PM,57.0,52.0,83,29.99,10.0,NE,12.7,-,N/A,,Mostly Cloudy,50,2013-08-14 02:53:00
7:53 PM,59.0,50.0,72,29.99,10.0,SE,8.1,-,N/A,,Mostly Cloudy,140,2013-08-14 03:53:00
8:53 PM,57.9,48.9,72,30.00,10.0,South,6.9,-,N/A,,Mostly Cloudy,180,2013-08-14 04:53:00
9:53 PM,55.9,48.0,75,30.01,10.0,SSE,6.9,-,N/A,,Mostly Cloudy,160,2013-08-14 05:53:00
10:53 PM,54.0,48.0,80,30.01,10.0,SE,5.8,-,N/A,,Mostly Cloudy,130,2013-08-14 06:53:00
11:53 PM,53.1,46.9,80,30.02,10.0,Calm,Calm,-,N/A,,Mostly Cloudy,0,2013-08-14 07:53:00